This is the latest recevied weather packets stored in our database for station/object EB1TK-13. If no packets are shown the sender has not sent any weather packets the latest 10 day(s).
| Time | Temp. | Humidity | Pressure | Rain* | Wind** | Luminosity | Snow |
|---|---|---|---|---|---|---|---|
| 1778081537 | 16.67° C | 80% | 1013.5 hPa | 0 mm | - | - | - |
| 1778080935 | 16.11° C | 81% | 1013.6 hPa | 0 mm | - | - | - |
| 1778080336 | 16.11° C | 79% | 1013.8 hPa | 0 mm | - | - | - |
| 1778079736 | 16.11° C | 80% | 1013.8 hPa | 0 mm | - | - | - |
| 1778079136 | 16.11° C | 79% | 1013.9 hPa | 0 mm | - | - | - |
| 1778078539 | 16.67° C | 77% | 1013.9 hPa | 0 mm | - | - | - |
| 1778077937 | 16.67° C | 76% | 1013.9 hPa | 0 mm | - | - | - |
| 1778077335 | 16.11° C | 77% | 1014 hPa | 0 mm | - | - | - |
| 1778076735 | 16.11° C | 78% | 1014.1 hPa | 0 mm | - | - | - |
| 1778076136 | 16.11° C | 79% | 1014.1 hPa | 0 mm | - | - | - |
| 1778075536 | 16.67° C | 79% | 1014.2 hPa | 0 mm | - | - | - |
| 1778074936 | 16.11° C | 77% | 1014.4 hPa | 0 mm | - | - | - |
| 1778074337 | 16.11° C | 80% | 1014.4 hPa | 0 mm | - | - | - |
| 1778073737 | 16.11° C | 79% | 1014.4 hPa | 0 mm | - | - | - |
| 1778073135 | 15.56° C | 79% | 1014.5 hPa | 0 mm | - | - | - |
| 1778072536 | 15.56° C | 80% | 1014.4 hPa | 0 mm | - | - | - |
| 1778071936 | 15.56° C | 81% | 1014.5 hPa | 0 mm | - | - | - |
| 1778071336 | 15.56° C | 82% | 1014.5 hPa | 0 mm | - | - | - |
| 1778070737 | 15.56° C | 84% | 1014.6 hPa | 0 mm | - | - | - |
| 1778070137 | 15° C | 83% | 1014.6 hPa | 0 mm | - | - | - |
| 1778069537 | 15° C | 83% | 1014.7 hPa | 0 mm | - | - | - |
| 1778068935 | 15.56° C | 86% | 1014.6 hPa | 0 mm | - | - | - |
| 1778068335 | 15° C | 84% | 1014.7 hPa | 0 mm | - | - | - |
| 1778067736 | 15° C | 82% | 1014.7 hPa | 0 mm | - | - | - |
| 1778067136 | 15° C | 83% | 1014.7 hPa | 0 mm | - | - | - |
* Rain latest hour (hover to see other rain measurements)
** Current wind speed in m/s (hover to see current wind gust speed)